Location: Recife
(8.0585°S, 34.8848°W)
Time: 01:16:02
(UTC-03:00)

S-56A Canister/Altair - Pass Details

Date: 14 April 2026
Orbit: 633 x 2484 km, 38.9° (Epoch: 11 May)

Event Time Altitude Azimuth Distance (km) Brightness Sun altitude
Exits shadow 03:09:21 21° 336° (NNW) 3,067 10.4 -33.4°
Drops below altitude 10° 03:16:03 10° 11° (NNE) 4,342 11.5 -31.7°
Sets 03:21:20 0° 25° (NNE) 5,656 12.3 -30.4°
